timestamp,surface_pressure_avg,surface_temp_avg,battery_voltage,lat,long
2021-08-14 00:09:01+00:00,236.7415,18.0,12.81,47.84626,-54.09684
2021-08-14 00:19:01+00:00,239.7664,18.0,12.73,47.84626,-54.09684
2021-08-14 00:29:01+00:00,245.3098,18.0,12.73,47.84626,-54.09684
2021-08-14 00:39:01+00:00,251.0581,18.0,12.73,47.84626,-54.09684
2021-08-14 00:49:01+00:00,256.1314,18.0,12.73,47.84626,-54.09684
2021-08-14 00:59:01+00:00,262.1781,18.0,12.73,47.84626,-54.09684
2021-08-14 01:09:01+00:00,269.6414,18.0,12.73,47.84626,-54.09684
2021-08-14 01:19:00+00:00,277.9048,18.0,12.73,47.84626,-54.09684
2021-08-14 01:29:00+00:00,285.3764,18.0,12.73,47.84626,-54.09684
2021-08-14 01:39:00+00:00,294.7131,18.0,12.73,47.84626,-54.09684
2021-08-14 01:49:00+00:00,304.9963,18.0,12.73,47.84626,-54.09684
2021-08-14 01:59:00+00:00,310.4647,18.0,12.73,47.84626,-54.09684
2021-08-14 02:09:00+00:00,314.5297,18.0,12.73,47.84626,-54.09684
2021-08-14 02:19:00+00:00,321.3014,18.0,12.65,47.84626,-54.09684
2021-08-14 02:29:00+00:00,326.528,18.0,12.65,47.84626,-54.09684
2021-08-14 02:39:00+00:00,329.1547,18.0,12.65,47.84626,-54.09684
2021-08-14 02:49:00+00:00,333.3579,18.0,12.65,47.84626,-54.09684
2021-08-14 02:59:00+00:00,338.2896,18.0,12.65,47.84626,-54.09684
2021-08-14 03:09:00+00:00,337.6862,18.0,12.65,47.84626,-54.09684
2021-08-14 03:19:01+00:00,336.7197,18.0,12.65,47.84626,-54.09684
2021-08-14 03:29:01+00:00,337.7214,18.0,12.65,47.84626,-54.09684
2021-08-14 03:39:01+00:00,337.6746,18.0,12.65,47.84626,-54.09684
2021-08-14 03:49:01+00:00,335.6446,18.0,12.65,47.84626,-54.09684
2021-08-14 03:59:01+00:00,334.9948,18.0,12.65,47.84626,-54.09684
2021-08-14 04:09:01+00:00,335.4613,18.0,12.65,47.84626,-54.09684
2021-08-14 04:19:00+00:00,331.6229,17.94,12.65,47.84626,-54.09684
2021-08-14 04:29:00+00:00,329.0314,17.94,12.65,47.84626,-54.09684
2021-08-14 04:39:00+00:00,332.3463,17.9,12.65,47.84626,-54.09684
2021-08-14 04:49:00+00:00,332.2213,17.9,12.65,47.84626,-54.09684
2021-08-14 04:59:00+00:00,327.3396,17.94,12.65,47.84626,-54.09684
2021-08-14 05:09:00+00:00,324.3846,17.99,12.65,47.84626,-54.09684
2021-08-14 05:19:00+00:00,323.3313,18.0,12.65,47.84626,-54.09684
2021-08-14 05:29:00+00:00,317.3196,18.0,12.65,47.84626,-54.09684
2021-08-14 05:39:00+00:00,310.8263,18.0,12.65,47.84626,-54.09684
2021-08-14 05:49:00+00:00,306.528,18.0,12.65,47.84626,-54.09684
2021-08-14 05:59:00+00:00,299.52299999999997,18.0,12.65,47.84626,-54.09684
2021-08-14 06:09:00+00:00,288.7297,18.0,12.65,47.84626,-54.09684
2021-08-14 06:19:01+00:00,279.3647,18.0,12.65,47.84626,-54.09684
2021-08-14 06:29:01+00:00,271.4864,18.0,12.65,47.84626,-54.09684
2021-08-14 06:39:01+00:00,263.2848,18.0,12.65,47.84626,-54.09684
2021-08-14 06:49:01+00:00,251.3181,18.0,12.65,47.84626,-54.09684
2021-08-14 06:59:01+00:00,240.3414,18.0,12.65,47.84626,-54.09684
2021-08-14 07:09:01+00:00,232.2731,18.0,12.65,47.84626,-54.09684
2021-08-14 07:19:01+00:00,223.6048,18.0,12.65,47.84626,-54.09684
2021-08-14 07:29:01+00:00,214.2598,18.0,12.65,47.84626,-54.09684
2021-08-14 07:39:01+00:00,207.0348,18.01,12.65,47.84626,-54.09684
2021-08-14 07:49:01+00:00,200.7865,18.01,12.65,47.84626,-54.09684
2021-08-14 07:59:01+00:00,194.9215,18.03,12.65,47.84626,-54.09684
2021-08-14 08:09:01+00:00,188.9932,18.05,12.65,47.84626,-54.09684
2021-08-14 08:19:01+00:00,183.8531,18.08,12.65,47.84626,-54.09684
2021-08-14 08:29:01+00:00,181.5015,18.09,12.65,47.84626,-54.09684
2021-08-14 08:39:01+00:00,178.2331,18.1,12.65,47.84626,-54.09684
2021-08-14 08:49:01+00:00,174.3998,18.1,12.65,47.84626,-54.09684
2021-08-14 08:59:01+00:00,173.2698,18.1,12.65,47.84626,-54.09684
2021-08-14 09:09:01+00:00,172.8215,18.15,12.65,47.84626,-54.09684
2021-08-14 09:19:01+00:00,172.7031,18.19,12.65,47.84626,-54.09684
2021-08-14 09:29:01+00:00,173.7048,18.2,12.65,47.84626,-54.09684
2021-08-14 09:39:01+00:00,176.6215,18.2,12.65,47.84626,-54.09684
2021-08-14 09:49:01+00:00,179.5548,18.2,12.65,47.84626,-54.09684
2021-08-14 09:59:01+00:00,181.9882,18.2,12.65,47.84626,-54.09684
2021-08-14 10:09:01+00:00,186.8682,18.2,12.65,47.84626,-54.09684
2021-08-14 10:19:01+00:00,189.9848,18.2,12.65,47.84626,-54.09684
2021-08-14 10:29:01+00:00,195.0498,18.2,12.65,47.84626,-54.09684
2021-08-14 10:39:01+00:00,201.1531,18.2,12.65,47.84626,-54.09684
2021-08-14 10:49:01+00:00,203.6248,18.2,12.65,47.84626,-54.09684
2021-08-14 10:59:01+00:00,207.6981,18.2,12.65,47.84626,-54.09684
2021-08-14 11:09:01+00:00,212.7231,18.2,12.65,47.84626,-54.09684
2021-08-14 11:19:01+00:00,217.7031,18.2,12.65,47.84626,-54.09684
2021-08-14 11:29:01+00:00,222.5248,18.19,12.65,47.84626,-54.09684
2021-08-14 11:39:01+00:00,223.6898,18.19,12.65,47.84626,-54.09684
2021-08-14 11:49:01+00:00,227.1565,18.19,12.65,47.84626,-54.09684
2021-08-14 11:59:01+00:00,232.1648,18.19,12.65,47.84626,-54.09684
2021-08-14 12:09:01+00:00,234.6114,18.2,12.65,47.84626,-54.09684
2021-08-14 12:19:01+00:00,237.2181,18.2,12.73,47.84626,-54.09684
2021-08-14 12:29:01+00:00,240.9131,18.19,12.73,47.84626,-54.09684
2021-08-14 12:39:01+00:00,245.3548,18.13,12.73,47.84626,-54.09684
2021-08-14 12:49:01+00:00,249.6431,18.1,12.73,47.84626,-54.09684
2021-08-14 12:59:01+00:00,254.6098,18.1,12.73,47.84626,-54.09684
2021-08-14 13:09:01+00:00,260.6881,18.1,12.73,47.84626,-54.09684
2021-08-14 13:19:01+00:00,268.6731,18.1,12.89,47.84626,-54.09684
2021-08-14 13:29:01+00:00,276.7397,18.1,12.89,47.84626,-54.09684
2021-08-14 13:39:01+00:00,284.108,18.1,12.89,47.84626,-54.09684
2021-08-14 13:49:01+00:00,291.0081,18.1,12.89,47.84626,-54.09684
2021-08-14 13:59:01+00:00,299.9447,18.1,12.89,47.84626,-54.09684
2021-08-14 14:09:01+00:00,306.5997,18.1,12.89,47.84626,-54.09684
2021-08-14 14:19:01+00:00,313.0847,18.1,13.05,47.84626,-54.09684
2021-08-14 14:29:01+00:00,319.363,18.02,13.05,47.84626,-54.09684
2021-08-14 14:39:01+00:00,324.8964,18.0,13.05,47.84626,-54.09684
2021-08-14 14:49:01+00:00,328.6013,18.03,13.05,47.84626,-54.09684
2021-08-14 14:59:01+00:00,332.5563,18.06,13.05,47.84626,-54.09684
2021-08-14 15:09:01+00:00,335.1297,18.07,13.05,47.84626,-54.09684
2021-08-14 15:19:01+00:00,338.3880000000001,18.03,13.21,47.84626,-54.09684
2021-08-14 15:29:01+00:00,340.3130000000001,18.04,13.21,47.84626,-54.09684
2021-08-14 15:39:01+00:00,339.0096,18.06,13.21,47.84626,-54.09684
2021-08-14 15:49:01+00:00,338.9163,18.06,13.21,47.84626,-54.09684
2021-08-14 15:59:01+00:00,340.9413,18.02,13.21,47.84626,-54.09684
2021-08-14 16:09:01+00:00,339.4113,18.0,13.21,47.84626,-54.09684
2021-08-14 16:19:01+00:00,338.0864,18.0,13.37,47.84626,-54.09684
2021-08-14 16:29:01+00:00,339.3964,18.0,13.37,47.84626,-54.09684
2021-08-14 16:39:01+00:00,337.8613,18.0,13.37,47.84626,-54.09684
2021-08-14 16:49:01+00:00,334.17800000000005,18.07,13.37,47.84626,-54.09684
2021-08-14 16:59:01+00:00,331.8830000000001,18.09,13.37,47.84626,-54.09684
2021-08-14 17:09:01+00:00,330.5447,18.1,13.37,47.84626,-54.09684
2021-08-14 17:19:01+00:00,326.6796,18.1,13.44,47.84626,-54.09684
2021-08-14 17:29:01+00:00,324.0163,18.13,13.44,47.84626,-54.09684
2021-08-14 17:39:01+00:00,321.773,18.18,13.44,47.84626,-54.09684
2021-08-14 17:49:01+00:00,317.0831,18.26,13.44,47.84626,-54.09684
2021-08-14 17:59:01+00:00,313.3646,18.3,13.44,47.84626,-54.09684
2021-08-14 18:09:01+00:00,310.7697,18.3,13.44,47.84626,-54.09684
2021-08-14 18:19:00+00:00,303.58799999999997,18.3,13.76,47.84626,-54.09684
2021-08-14 18:29:00+00:00,292.6214,18.36,13.76,47.84626,-54.09684
2021-08-14 18:39:00+00:00,285.4047,18.3,13.76,47.84626,-54.09684
2021-08-14 18:49:00+00:00,278.743,18.3,13.76,47.84626,-54.09684
2021-08-14 18:59:00+00:00,267.5731,18.3,13.76,47.84626,-54.09684
2021-08-14 19:09:00+00:00,257.8697,18.3,13.76,47.84626,-54.09684
2021-08-14 19:19:01+00:00,251.6898,18.3,13.68,47.84626,-54.09684
2021-08-14 19:29:01+00:00,245.9164,18.3,13.68,47.84626,-54.09684
2021-08-14 19:39:01+00:00,237.8198,18.3,13.68,47.84626,-54.09684
2021-08-14 19:49:01+00:00,228.7881,18.34,13.68,47.84626,-54.09684
2021-08-14 19:59:01+00:00,223.0347,18.4,13.68,47.84626,-54.09684
2021-08-14 20:09:01+00:00,218.0464,18.4,13.68,47.84626,-54.09684
2021-08-14 20:19:01+00:00,210.6898,18.43,13.44,47.84626,-54.09684
2021-08-14 20:29:01+00:00,202.0265,18.47,13.44,47.84626,-54.09684
2021-08-14 20:39:01+00:00,199.28799999999998,18.47,13.44,47.84626,-54.09684
2021-08-14 20:49:01+00:00,198.0931,18.46,13.44,47.84626,-54.09684
2021-08-14 20:59:01+00:00,192.6365,18.46,13.44,47.84626,-54.09684
2021-08-14 21:09:01+00:00,187.8731,18.49,13.44,47.84626,-54.09684
2021-08-14 21:19:01+00:00,189.2615,18.49,13.21,47.84626,-54.09684
2021-08-14 21:29:01+00:00,191.2348,18.5,13.21,47.84626,-54.09684
2021-08-14 21:39:01+00:00,190.5665,18.5,13.21,47.84626,-54.09684
2021-08-14 21:49:01+00:00,191.8848,18.56,13.21,47.84626,-54.09684
2021-08-14 21:59:01+00:00,196.3548,18.57,13.21,47.84626,-54.09684
2021-08-14 22:09:01+00:00,199.8848,18.55,13.21,47.84626,-54.09684
2021-08-14 22:19:01+00:00,200.5565,18.59,12.89,47.84626,-54.09684
2021-08-14 22:29:01+00:00,202.1948,18.59,12.89,47.84626,-54.09684
2021-08-14 22:39:01+00:00,206.0381,18.5,12.89,47.84626,-54.09684
2021-08-14 22:49:01+00:00,207.6681,18.5,12.89,47.84626,-54.09684
2021-08-14 22:59:01+00:00,210.0281,18.5,12.89,47.84626,-54.09684
2021-08-14 23:09:01+00:00,214.4947,18.46,12.89,47.84626,-54.09684
2021-08-14 23:19:01+00:00,215.9715,18.4,12.81,47.84626,-54.09684
2021-08-14 23:29:01+00:00,216.5448,18.4,12.81,47.84626,-54.09684
2021-08-14 23:39:01+00:00,220.1364,18.4,12.81,47.84626,-54.09684
2021-08-14 23:49:01+00:00,222.5131,18.4,12.81,47.84626,-54.09684
2021-08-14 23:59:01+00:00,222.3465,18.4,12.81,47.84626,-54.09684
